Imperial, NE

4:08 AM MDT on September 22, 2017 (GMT -0600)
Imperial Municipal

Weather History for KIML - February, 2014

Change the Weather History Date:

Saturday, February 1, 2014

  Actual Average Record
Temperature  
Mean Temperature 11 °F 29 °F  
Max Temperature 19 °F 42 °F 72 °F (1953)
Min Temperature 2 °F 17 °F -22 °F (1951)
Degree Days  
Heating Degree Days 54 36  
Month to date heating degree days 54 36  
Cooling Degree Days 0 0  
Month to date cooling degree days 0 0  
Year to date cooling degree days 0 0  
Moisture  
Dew Point 7 °F    
Average Humidity 84    
Maximum Humidity 100    
Minimum Humidity 67    
Precipitation  
Precipitation 0.00 in 0.01 in 0.60 in (1960)
Sea Level Pressure  
Sea Level Pressure 30.08 in    
Wind  
Wind Speed 9 mph (NNW)    
Max Wind Speed 21 mph    
Max Gust Speed 24 mph    
Visibility 8 miles    
Events Fog    
T = Trace of Precipitation, MM = Missing Value Source: NWS Daily Summary

Daily Weather History Graph

Daily Weather History Graph

Search for Another Location

Airport or City:

Trip Planner

Search our weather history database for the weather conditions in past years. The results will help you decide how hot, cold, wet, or windy it might be!

Date:

Astronomy

Feb. 01, 2014 Rise Set
Actual Time 6:55 AM MST 5:04 PM MST
Civil Twilight 6:27 AM MST 5:33 PM MST
Nautical Twilight 5:54 AM MST 6:06 PM MST
Astronomical Twilight 5:22 AM MST 6:38 PM MST
Moon 7:46 AM MST (2/1) 7:43 PM MST (2/1)
Length of Visible Light 11h 06m
Length of Day
10h 08m
Waxing Crescent, 5% of the Moon is Illuminated
Feb 1
Waxing Crescent
Feb 6
First Quarter
Feb 14
Full
Feb 22
Last Quarter
Mar 1
New

Hourly Weather History & Observations

Time (MST) Temp. Windchill Dew Point Humidity Pressure Visibility Wind Dir Wind Speed Gust Speed Precip Events Conditions
12:12 AM 8.6 °F - 5.0 °F 85% 29.80 in 0.2 mi Calm Calm - N/A Fog Light Freezing Fog
12:40 AM 8.6 °F - 6.8 °F 92% 29.80 in 1.0 mi Calm Calm - N/A   Mist
12:45 AM 10.4 °F 4.0 °F 6.8 °F 85% 29.80 in 3.0 mi NW 3.5 mph - N/A   Overcast
12:53 AM 10.9 °F - 7.0 °F 84% 29.94 in 7.0 mi Calm Calm - N/A   Overcast
1:33 AM 10.4 °F - 6.8 °F 85% 29.81 in 10.0 mi Calm Calm - N/A   Overcast
1:53 AM 10.9 °F - 7.0 °F 84% 29.96 in 8.0 mi Calm Calm - N/A   Overcast
2:53 AM 12.9 °F 3.8 °F 10.0 °F 88% 29.96 in 2.5 mi NNW 5.8 mph - N/A   Overcast
2:59 AM 12.2 °F 6.1 °F 10.4 °F 92% 29.82 in 0.8 mi North 3.5 mph - N/A   Overcast
3:08 AM 10.4 °F 2.2 °F 8.6 °F 92% 29.83 in 0.5 mi North 4.6 mph - N/A Fog Light Freezing Fog
3:15 AM 10.4 °F 4.0 °F 8.6 °F 92% 29.83 in 0.2 mi NW 3.5 mph - N/A Fog Light Freezing Fog
3:30 AM 10.4 °F -1.5 °F 8.6 °F 92% 29.83 in 1.0 mi NNW 8.1 mph - N/A   Overcast
3:34 AM 10.4 °F -3.3 °F 8.6 °F 92% 29.83 in 3.0 mi NNW 10.4 mph - N/A   Mostly Cloudy
3:42 AM 10.4 °F -2.4 °F 6.8 °F 85% 29.83 in 8.0 mi NNW 9.2 mph - N/A   Scattered Clouds
3:53 AM 10.0 °F -2.9 °F 6.1 °F 84% 29.99 in 10.0 mi NNW 9.2 mph - N/A   Scattered Clouds
4:53 AM 9.0 °F -2.2 °F 5.0 °F 84% 30.01 in 10.0 mi North 6.9 mph - N/A   Partly Cloudy
5:53 AM 10.9 °F -2.6 °F 8.1 °F 88% 30.04 in 10.0 mi North 10.4 mph - N/A   Scattered Clouds
6:53 AM 9.0 °F -6.6 °F 5.0 °F 84% 30.09 in 10.0 mi North 12.7 mph - N/A   Clear
7:53 AM 9.0 °F -7.3 °F 5.0 °F 84% 30.12 in 10.0 mi North 13.8 mph - N/A   Clear
8:53 AM 12.0 °F -1.3 °F 6.1 °F 77% 30.16 in 10.0 mi North 10.4 mph - N/A   Clear
9:53 AM 14.0 °F -1.4 °F 5.0 °F 67% 30.17 in 10.0 mi North 15.0 mph - N/A   Partly Cloudy
10:53 AM 16.0 °F 1.7 °F 6.1 °F 65% 30.20 in 10.0 mi North 13.8 mph - N/A   Clear
11:53 AM 16.0 °F 0.6 °F 6.1 °F 65% 30.21 in 10.0 mi North 16.1 mph - N/A   Overcast
12:53 PM 18.0 °F 2.6 °F 8.1 °F 65% 30.18 in 10.0 mi North 17.3 mph - N/A   Clear
1:53 PM 18.0 °F 4.2 °F 8.1 °F 65% 30.19 in 10.0 mi North 13.8 mph - N/A   Overcast
2:53 PM 18.0 °F 5.4 °F 10.0 °F 71% 30.22 in 10.0 mi North 11.5 mph - N/A   Overcast
3:08 PM 17.6 °F 3.7 °F 10.4 °F 73% 30.08 in 10.0 mi North 13.8 mph - N/A   Overcast
3:26 PM 19.4 °F 6.6 °F 10.4 °F 68% 30.08 in 10.0 mi North 12.7 mph - N/A   Overcast
3:53 PM 18.0 °F 6.1 °F 10.0 °F 71% 30.25 in 10.0 mi North 10.4 mph - N/A   Overcast
4:53 PM 17.1 °F 7.6 °F 10.0 °F 74% 30.28 in 10.0 mi North 6.9 mph - N/A   Overcast
5:09 PM 15.8 °F 7.2 °F 10.4 °F 79% 30.13 in 10.0 mi NNW 5.8 mph - N/A   Overcast
5:44 PM 12.2 °F 1.7 °F 8.6 °F 85% 30.14 in 10.0 mi NNW 6.9 mph - N/A   Overcast
5:53 PM 14.0 °F 3.9 °F 9.0 °F 80% 30.31 in 10.0 mi NNW 6.9 mph - N/A   Overcast
6:53 PM 14.0 °F 6.5 °F 10.0 °F 84% 30.34 in 10.0 mi NNW 4.6 mph - N/A   Overcast
7:53 PM 10.9 °F 2.9 °F 8.1 °F 88% 30.37 in 10.0 mi West 4.6 mph - N/A   Partly Cloudy
8:53 PM 5.0 °F -2.1 °F 1.9 °F 87% 30.38 in 10.0 mi West 3.5 mph - N/A   Clear
9:53 PM 3.9 °F -3.4 °F 1.0 °F 88% 30.38 in 10.0 mi West 3.5 mph - N/A   Clear
10:53 PM 5.0 °F -4.1 °F 1.9 °F 87% 30.37 in 10.0 mi West 4.6 mph - N/A   Clear
11:53 PM 3.9 °F -5.3 °F -0.9 °F 80% 30.37 in 10.0 mi West 4.6 mph - N/A   Clear